Location: *
(18.5200°S, 46.4500°E)
Time: 10:52:21
(UTC+00:00)

SMAP - Visible Passes

Search period start: 15 October 2019 00:00
Search period end: 25 October 2019 00:00
Orbit: 681 x 683 km, 98.1° (Epoch: 15 October)

Date Brightness Start Highest point End Pass type
(mag) Time Alt. Az. Time Alt. Az. Time Alt. Az.
15 Oct 6.6 01:34:28 10° E 01:36:36 13° ESE 01:38:43 10° SE visible
15 Oct 4.0 15:17:26 10° S 15:22:00 54° WSW 15:26:32 10° NNW visible
16 Oct 6.1 15:55:01 10° SSW 15:58:17 19° WSW 16:01:31 10° WNW visible
18 Oct 6.3 01:45:26 10° ENE 01:48:37 18° ESE 01:51:49 10° SSE visible
18 Oct 4.8 15:29:46 10° S 15:34:05 37° WSW 15:38:21 10° NW visible
19 Oct 6.5 16:08:04 10° SW 16:10:18 13° WSW 16:12:30 10° W visible
21 Oct 5.8 01:56:48 10° NE 02:00:39 26° ESE 02:04:30 10° SSE visible
21 Oct 5.5 15:42:13 10° SSW 15:46:07 26° WSW 15:49:59 10° NW visible
23 Oct 6.7 01:34:23 10° E 01:36:29 13° ESE 01:38:35 10° SE visible
23 Oct 4.0 15:17:19 10° S 15:21:53 54° WSW 15:26:24 10° NNW visible
24 Oct 6.1 15:54:53 10° SSW 15:58:09 19° WSW 16:01:24 10° WNW visible
